Berlin Tegel, Germany

11:24 AM CET on January 20, 2018 (GMT +0100)
Tegel

Weather History for EDDT - January, 2014

Change the Weather History Date:

Friday, January 10, 2014

  Actual Average Record
Temperature  
Mean Temperature 43 °F -  
Max Temperature 45 °F 38 °F 57 °F (1998)
Min Temperature 41 °F 28 °F 15 °F (2003)
Degree Days  
Heating Degree Days 22    
Moisture  
Dew Point 36 °F    
Average Humidity 72    
Maximum Humidity 81    
Minimum Humidity 59    
Precipitation  
Precipitation 0.00 in - - ()
Sea Level Pressure  
Sea Level Pressure 29.83 in    
Wind  
Wind Speed 18 mph ()    
Max Wind Speed 25 mph    
Max Gust Speed 34 mph    
Visibility 6.6 miles    
Events Rain    
Averages and records for this station are not official NWS values.
T = Trace of Precipitation, MM = Missing Value Source: Averaged Metar Reports

Daily Weather History Graph

Daily Weather History Graph

Search for Another Location

Airport or City:

Trip Planner

Search our weather history database for the weather conditions in past years. The results will help you decide how hot, cold, wet, or windy it might be!

Date:

Astronomy

Jan. 10, 2014 Rise Set
Actual Time 8:14 AM CET 4:14 PM CET
Civil Twilight 7:33 AM CET 4:54 PM CET
Nautical Twilight 6:50 AM CET 5:38 PM CET
Astronomical Twilight 6:09 AM CET 6:19 PM CET
Moon 12:20 PM CET (1/10) 2:49 AM CET (1/10)
Length of Visible Light 9h 20m
Length of Day
8h 00m
Waxing Gibbous, 73% of the Moon is Illuminated
Jan 10
Waxing Gibbous
Jan 16
Full
Jan 24
Last Quarter
Jan 30
New
Feb 6
First Quarter

Hourly Weather History & Observations

Time (CET) Temp. Windchill Dew Point Humidity Pressure Visibility Wind Dir Wind Speed Gust Speed Precip Events Conditions
12:20 AM 46.4 °F 38.7 °F 37.4 °F 71% 29.62 in 6.2 mi West 20.7 mph 34.5 mph N/A   Mostly Cloudy
12:50 AM 44.6 °F 37.4 °F 35.6 °F 71% 29.62 in 6.2 mi West 16.1 mph - N/A   Mostly Cloudy
1:20 AM 44.6 °F 36.6 °F 35.6 °F 71% 29.62 in 6.2 mi West 19.6 mph 33.4 mph N/A   Mostly Cloudy
1:50 AM 44.6 °F 36.6 °F 37.4 °F 76% 29.65 in 6.2 mi West 19.6 mph - N/A   Mostly Cloudy
2:00 AM 45 °F - 37 °F 64% 29.65 in 25 mi West 20.1 mph - -   Mostly Cloudy
2:20 AM 44.6 °F 35.9 °F 37.4 °F 76% 29.65 in 6.2 mi West 23.0 mph - N/A Rain Light Rain
2:50 AM 44.6 °F 35.5 °F 37.4 °F 76% 29.65 in 6.2 mi West 25.3 mph - N/A   Mostly Cloudy
3:00 AM 45 °F - 37 °F 65% 29.67 in 25 mi West 24.6 mph - - Rain Light Rain
3:20 AM 44.6 °F 36.6 °F 37.4 °F 76% 29.68 in 6.2 mi West 19.6 mph 31.1 mph N/A   Mostly Cloudy
3:50 AM 44.6 °F 37.2 °F 37.4 °F 76% 29.68 in 6.2 mi West 17.3 mph - N/A Rain Light Rain
4:00 AM 45 °F - 38 °F 67% 29.69 in 25 mi West 17.9 mph - - Rain Light Rain
4:20 AM 44.6 °F 36.6 °F 37.4 °F 76% 29.68 in 6.2 mi West 19.6 mph 33.4 mph N/A Rain Light Rain
4:50 AM 44.6 °F 35.9 °F 35.6 °F 71% 29.71 in 6.2 mi West 23.0 mph - N/A Rain Light Rain
5:00 AM 44 °F - 36 °F 63% 29.71 in 25 mi West 22.4 mph - - Rain Light Rain
5:20 AM 44.6 °F 36.9 °F 35.6 °F 71% 29.71 in 6.2 mi West 18.4 mph - N/A   Mostly Cloudy
5:50 AM 44.6 °F 36.6 °F 35.6 °F 71% 29.71 in 6.2 mi West 19.6 mph - N/A   Mostly Cloudy
6:00 AM 44 °F - 36 °F 63% 29.73 in 25 mi West 20.1 mph - - Rain Light Rain
6:20 AM 42.8 °F 34.5 °F 35.6 °F 76% 29.74 in 6.2 mi West 18.4 mph - N/A   Mostly Cloudy
6:50 AM 42.8 °F 34.3 °F 35.6 °F 76% 29.74 in 6.2 mi West 19.6 mph - N/A   Mostly Cloudy
7:00 AM 44 °F - 36 °F 64% 29.75 in 25 mi West 20.1 mph - -   Partly Cloudy
7:20 AM 42.8 °F 34.3 °F 35.6 °F 76% 29.74 in 6.2 mi West 19.6 mph - N/A   Mostly Cloudy
7:50 AM 42.8 °F 34.0 °F 35.6 °F 76% 29.77 in 6.2 mi West 20.7 mph - N/A   Mostly Cloudy
8:00 AM 43 °F - 36 °F 69% 29.77 in 22 mi West 20.1 mph - - Rain Light Rain
8:20 AM 42.8 °F 34.0 °F 37.4 °F 81% 29.77 in 6.2 mi West 20.7 mph - N/A   Mostly Cloudy
8:50 AM 42.8 °F 34.3 °F 37.4 °F 81% 29.80 in 6.2 mi West 19.6 mph - N/A   Mostly Cloudy
9:00 AM 43 °F - 37 °F 73% 29.81 in 22 mi West 20.1 mph - - Rain Light Rain
9:20 AM 42.8 °F 34.0 °F 37.4 °F 81% 29.80 in 6.2 mi West 20.7 mph - N/A   Mostly Cloudy
9:50 AM 42.8 °F 34.8 °F 37.4 °F 81% 29.80 in 6.2 mi West 17.3 mph - N/A   Mostly Cloudy
10:00 AM 43 °F - 38 °F 76% 29.83 in 22 mi West 15.7 mph - - Rain Light Rain Showers
10:20 AM 44.6 °F 36.4 °F 37.4 °F 76% 29.83 in 6.2 mi West 20.7 mph - N/A   Mostly Cloudy
10:50 AM 44.6 °F 35.9 °F 37.4 °F 76% 29.83 in 6.2 mi West 23.0 mph - N/A   Mostly Cloudy
11:00 AM 45 °F - 38 °F 67% 29.84 in 19 mi West 22.4 mph - - Rain Light Rain Showers
11:20 AM 44.6 °F 35.7 °F 37.4 °F 76% 29.83 in 6.2 mi West 24.2 mph - N/A   Mostly Cloudy
11:50 AM 44.6 °F 36.6 °F 37.4 °F 76% 29.83 in 6.2 mi West 19.6 mph - N/A   Mostly Cloudy
12:00 PM 45 °F - 37 °F 66% 29.85 in 22 mi West 20.1 mph - -   Mostly Cloudy
12:20 PM 44.6 °F 36.4 °F 37.4 °F 76% 29.83 in 6.2 mi West 20.7 mph - N/A   Mostly Cloudy
12:50 PM 44.6 °F 36.4 °F 37.4 °F 76% 29.86 in 6.2 mi West 20.7 mph - N/A Rain Light Rain Showers
1:00 PM 44 °F - 38 °F 71% 29.86 in 14 mi West 20.1 mph - - Rain Light Rain Showers
1:20 PM 42.8 °F 34.5 °F 37.4 °F 81% 29.86 in 6.2 mi West 18.4 mph 31.1 mph N/A Rain Light Rain Showers
1:50 PM 42.8 °F 34.3 °F 37.4 °F 81% 29.86 in 6.2 mi West 19.6 mph 31.1 mph N/A Rain Light Rain Showers
2:00 PM 44 °F - 38 °F 71% 29.87 in 22 mi West 20.1 mph - - Rain Light Rain Showers
2:20 PM 44.6 °F 36.6 °F 35.6 °F 71% 29.86 in 6.2 mi West 19.6 mph - N/A   Mostly Cloudy
2:50 PM 44.6 °F 36.1 °F 33.8 °F 66% 29.86 in 6.2 mi West 21.9 mph - N/A   Mostly Cloudy
3:00 PM 44 °F - 35 °F 62% 29.88 in 25 mi West 22.4 mph - - Rain Light Rain Showers
3:20 PM 44.6 °F 36.4 °F 35.6 °F 71% 29.89 in 6.2 mi West 20.7 mph - N/A   Mostly Cloudy
3:50 PM 44.6 °F 37.2 °F 33.8 °F 66% 29.89 in 6.2 mi West 17.3 mph - N/A   Mostly Cloudy
4:00 PM 44 °F - 35 °F 60% 29.91 in 25 mi West 17.9 mph - - Rain Light Rain
4:20 PM 42.8 °F 34.5 °F 33.8 °F 70% 29.89 in 6.2 mi West 18.4 mph - N/A   Mostly Cloudy
4:50 PM 44.6 °F 37.2 °F 33.8 °F 66% 29.92 in 6.2 mi West 17.3 mph - N/A   Mostly Cloudy
5:00 PM 44 °F - 34 °F 59% 29.92 in 25 mi West 15.7 mph - - Rain Light Rain
5:20 PM 42.8 °F 35.1 °F 33.8 °F 70% 29.92 in 6.2 mi West 16.1 mph - N/A   Mostly Cloudy
5:50 PM 42.8 °F 35.4 °F 33.8 °F 70% 29.92 in 6.2 mi West 15.0 mph - N/A   Mostly Cloudy
6:00 PM 44 °F - 35 °F 60% 29.94 in 25 mi WSW 15.7 mph - -   Mostly Cloudy
6:20 PM 42.8 °F 35.8 °F 33.8 °F 70% 29.92 in 6.2 mi WSW 13.8 mph - N/A   Mostly Cloudy
6:50 PM 42.8 °F 35.8 °F 33.8 °F 70% 29.92 in 6.2 mi WSW 13.8 mph - N/A   Mostly Cloudy
7:00 PM 43 °F - 35 °F 63% 29.94 in 22 mi WSW 13.4 mph - -   Partly Cloudy
7:20 PM 42.8 °F 35.8 °F 33.8 °F 70% 29.92 in 6.2 mi WSW 13.8 mph - N/A   Mostly Cloudy
7:50 PM 42.8 °F 35.1 °F 33.8 °F 70% 29.95 in - West 16.1 mph - N/A   Clear
8:00 PM 43 °F - 34 °F 62% 29.95 in 25 mi West 15.7 mph - -   Mostly Cloudy
8:20 PM 42.8 °F 35.8 °F 33.8 °F 70% 29.95 in 6.2 mi West 13.8 mph - N/A   Mostly Cloudy
8:50 PM 42.8 °F 34.8 °F 35.6 °F 76% 29.95 in 6.2 mi WSW 17.3 mph - N/A   Mostly Cloudy
9:00 PM 43 °F - 35 °F 63% 29.96 in 25 mi WSW 17.9 mph - -   Mostly Cloudy
9:20 PM 41.0 °F 33.9 °F 33.8 °F 76% 29.95 in - WSW 12.7 mph - N/A   Clear
9:50 PM 41.0 °F 34.3 °F 33.8 °F 76% 29.95 in 6.2 mi WSW 11.5 mph - N/A   Mostly Cloudy
10:00 PM 42 °F - 35 °F 66% 29.98 in 25 mi WSW 11.2 mph - -   Mostly Cloudy
10:20 PM 41.0 °F 33.9 °F 33.8 °F 76% 29.95 in 6.2 mi WSW 12.7 mph - N/A   Scattered Clouds
10:50 PM 41.0 °F 33.9 °F 33.8 °F 76% 29.95 in 6.2 mi WSW 12.7 mph - N/A   Mostly Cloudy
11:00 PM 41 °F - 35 °F 70% 29.98 in 25 mi WSW 11.2 mph - -   Mostly Cloudy
11:20 PM 41.0 °F 33.9 °F 35.6 °F 81% 29.95 in 6.2 mi WSW 12.7 mph - N/A   Mostly Cloudy
11:50 PM 41.0 °F 33.9 °F 35.6 °F 81% 29.98 in 6.2 mi WSW 12.7 mph - N/A   Mostly Cloudy